San Jose, Costa Rica

1:11 AM CST on June 28, 2017 (GMT -0600)
Juan Santamaria International

Weather History for MROC - September, 2013

Change the Weather History Date:

Monday, September 2, 2013

  Actual Average Record
Temperature  
Mean Temperature 70 °F -  
Max Temperature 77 °F 79 °F 87 °F (2014)
Min Temperature 62 °F 63 °F 62 °F (1998)
Cooling Degree Days 4    
Growing Degree Days 20 (Base 50)    
Moisture  
Dew Point 65 °F    
Average Humidity 83    
Maximum Humidity 100    
Minimum Humidity 57    
Precipitation  
Precipitation 0.00 in 0.46 in - ()
Sea Level Pressure  
Sea Level Pressure 30.01 in    
Wind  
Wind Speed 3 mph ()    
Max Wind Speed 9 mph    
Max Gust Speed -    
Visibility 6.9 miles    
Events Fog , Rain , Thunderstorm    
Averages and records for this station are not official NWS values.
T = Trace of Precipitation, MM = Missing Value Source: Averaged Metar Reports

Daily Weather History Graph

Daily Weather History Graph

Search for Another Location

Airport or City:

Trip Planner

Search our weather history database for the weather conditions in past years. The results will help you decide how hot, cold, wet, or windy it might be!

Date:

Astronomy

Sep. 02, 2013 Rise Set
Actual Time 5:27 AM CST 5:45 PM CST
Civil Twilight 5:06 AM CST 6:06 PM CST
Nautical Twilight 4:41 AM CST 6:31 PM CST
Astronomical Twilight 4:16 AM CST 6:55 PM CST
Moon 3:02 AM CST (9/2) 3:44 PM CST (9/2)
Length of Visible Light 12h 59m
Length of Day
12h 17m
Waning Crescent, 7% of the Moon is Illuminated
Sep 2
Waning Crescent
Sep 5
New
Sep 12
First Quarter
Sep 19
Full
Sep 26
Last Quarter

Hourly Weather History & Observations

Time (CST) Temp. Dew Point Humidity Pressure Visibility Wind Dir Wind Speed Gust Speed Precip Events Conditions
12:00 AM 66 °F 63 °F 88% 29.87 in 12 mi NE 2.3 mph - -  
12:00 AM 66.2 °F 62.6 °F 88% 30.03 in - NE 2.3 mph - N/A   Clear
1:00 AM 66.2 °F 62.6 °F 88% 30.00 in - NE 2.3 mph - N/A   Clear
2:00 AM 64.4 °F 62.6 °F 94% 29.99 in - ENE 2.3 mph - N/A   Clear
3:00 AM 65 °F 63 °F 92% 29.88 in 12 mi ENE 2.3 mph - -   Scattered Clouds
3:00 AM 64.4 °F 62.6 °F 94% 29.98 in - ENE 2.3 mph - N/A   Clear
4:00 AM 64.4 °F 62.6 °F 94% 30.00 in - NE 2.3 mph - N/A   Clear
5:00 AM 62.6 °F 60.8 °F 94% 30.01 in - East 2.3 mph - N/A   Clear
6:00 AM 64 °F 61 °F 85% 29.89 in 12 mi North 2.3 mph - -   Clear
6:00 AM 64.4 °F 60.8 °F 88% 30.04 in - North 2.3 mph - N/A   Clear
7:00 AM 69.8 °F 62.6 °F 78% 30.07 in - ENE 3.5 mph - N/A   Clear
8:00 AM 71.6 °F 64.4 °F 78% 30.10 in 6.2 mi SW 4.6 mph - N/A   Scattered Clouds
9:00 AM 73 °F 64 °F 65% 29.96 in 12 mi West 5.8 mph - -   Scattered Clouds
9:00 AM 73.4 °F 64.4 °F 73% 30.10 in 6.2 mi West 5.8 mph - N/A   Scattered Clouds
10:00 AM 75.2 °F 64.4 °F 69% 30.11 in 6.2 mi WSW 5.8 mph - N/A   Mostly Cloudy
11:00 AM 77.0 °F 66.2 °F 69% 30.10 in 6.2 mi WSW 6.9 mph - N/A   Mostly Cloudy
12:00 PM 77 °F 65 °F 57% 29.90 in 12 mi WSW 6.9 mph - -   Partly Cloudy
12:00 PM 77.0 °F 64.4 °F 65% 30.07 in 6.2 mi WSW 6.9 mph - N/A   Mostly Cloudy
1:00 PM 77.0 °F 66.2 °F 69% 30.04 in 6.2 mi SW 5.8 mph - N/A   Mostly Cloudy
2:00 PM 77.0 °F 66.2 °F 69% 30.00 in 6.2 mi WSW 5.8 mph - N/A   Mostly Cloudy
3:00 PM 76 °F 68 °F 70% 29.85 in 12 mi WSW 5.8 mph - -   Partly Cloudy
3:00 PM 77.0 °F 68.0 °F 74% 29.99 in 6.2 mi WSW 5.8 mph - N/A   Mostly Cloudy
4:00 PM 75.2 °F 69.8 °F 83% 29.98 in 6.2 mi WSW 9.2 mph - N/A Rain Light Rain
5:00 PM 71.6 °F 68.0 °F 88% 30.00 in 5.0 mi SW 8.1 mph - N/A Rain , Thunderstorm Light Rain
5:50 PM 68.0 °F 64.4 °F 88% 30.03 in 1.9 mi ESE 5.8 mph - N/A Rain , Thunderstorm Thunderstorms and Rain
6:00 PM 66.2 °F 64.4 °F 94% 30.04 in 1.9 mi ESE 5.8 mph - N/A Rain , Thunderstorm Thunderstorms and Rain
7:00 PM 68.0 °F 66.2 °F 94% 30.04 in 6.2 mi ENE 3.5 mph - N/A Rain Light Rain
8:00 PM 68.0 °F 66.2 °F 94% 30.08 in 6.2 mi West 3.5 mph - N/A   Mostly Cloudy
9:00 PM 67 °F 65 °F 93% 29.93 in 2 mi Calm Calm - -   Mist
9:00 PM 66.2 °F 66.2 °F 100% 30.08 in 2.5 mi Calm Calm - N/A   Mostly Cloudy
10:00 PM 66.2 °F 64.4 °F 94% 30.08 in 5.0 mi Calm Calm - N/A Fog Fog
11:00 PM 66.2 °F 64.4 °F 94% 30.07 in - East 3.5 mph - N/A   Clear